Printer-friendly version
Follow the MPC on Twitter Follow the MPC on Facebook The MPC blog
Minor Planet Center

MPEC 2000-S61 : 2000 SR43

The following Minor Planet Electronic Circular may be linked-to from your own Web pages, but must not otherwise be redistributed electronically.

A form allowing access to any MPEC is at the bottom of this page.


Read MPEC 2000-S62 Read MPEC 2000-S62


M.P.E.C. 2000-S61                                Issued 2000 Sept. 28, 18:40 UT

     The Minor Planet Electronic Circulars contain information on unusual
         minor planets and routine data on comets.  They are published
   on behalf of Commission 20 of the International Astronomical Union by the
          Minor Planet Center, Smithsonian Astrophysical Observatory,
                          Cambridge, MA 02138, U.S.A.

             Prepared using the Tamkin Foundation Computer Network

                              MPC@CFA.HARVARD.EDU
          URL http://cfa-www.harvard.edu/iau/mpc.html  ISSN 1523-6714

                                   2000 SR43

Observations:
     K00S43R* C2000 09 26.19791 23 50 23.46 +34 54 06.4          18.7 R      699
     K00S43R  C2000 09 26.22131 23 50 18.24 +34 55 37.4                      699
     K00S43R  C2000 09 26.24466 23 50 13.26 +34 57 06.8                      699
     K00S43R  C2000 09 26.26801 23 50 08.20 +34 58 37.3                      699
     K00S43R  C2000 09 26.95313 23 47 44.58 +35 42 17.7                      557
     K00S43R  C2000 09 26.96012 23 47 43.04 +35 42 45.0          19.2 V      557
     K00S43R  C2000 09 26.97920 23 47 38.90 +35 43 58.8          18.2 R      046
     K00S43R  C2000 09 26.98012 23 47 38.69 +35 44 01.6                      046
     K00S43R  C2000 09 26.98090 23 47 38.47 +35 44 04.5                      046
     K00S43R  C2000 09 26.98459 23 47 37.69 +35 44 19.9                      046
     K00S43R  C2000 09 27.14050 23 47 05.95 +35 54 17.3          19.3 R      858
     K00S43R  C2000 09 27.14437 23 47 05.08 +35 54 33.3          19.4 R      858
     K00S43R  C2000 09 27.75590 23 44 53.14 +36 33 20.4          19.4 V      557
     K00S43R  C2000 09 27.75714 23 44 52.86 +36 33 26.2                      557
     K00S43R  C2000 09 27.75838 23 44 52.55 +36 33 30.8                      557
     K00S43R  C2000 09 27.75962 23 44 52.29 +36 33 35.9                      557
     K00S43R  C2000 09 27.76086 23 44 52.01 +36 33 39.5                      557
     K00S43R  C2000 09 27.76332 23 44 51.53 +36 33 49.9                      557
     K00S43R  C2000 09 27.83729 23 44 34.95 +36 38 34.7          18.4 R      046
     K00S43R  C2000 09 27.83875 23 44 34.67 +36 38 40.4                      046
     K00S43R  C2000 09 27.83951 23 44 34.50 +36 38 43.6                      046
     K00S43R  C2000 09 27.84027 23 44 34.22 +36 38 46.5                      046
     K00S43R  C2000 09 27.85648 23 44 30.61 +36 39 49.2                      118
     K00S43R  C2000 09 27.86028 23 44 29.69 +36 40 03.6                      118
     K00S43R  C2000 09 27.86117 23 44 29.61 +36 40 06.6          20.3 R      540
     K00S43R  C2000 09 27.86424 23 44 28.90 +36 40 18.4                      540
     K00S43R  C2000 09 27.86442 23 44 28.65 +36 40 19.1                      118
     K00S43R  C2000 09 27.86806 23 44 27.96 +36 40 32.6                      540
     K00S43R  C2000 09 27.87106 23 44 27.35 +36 40 44.9                      540

Observer details:
046 Klet.  Observers J. Ticha, M. Tichy, M. Kocer, P. Jelinek.  0.57-m f/5.2
    reflector + CCD.
118 Modra.  Observers A. Galad, P. Koleny.  0.6-m f/5.5 reflector + CCD.
540 Linz.  Observer E. Meyer.  0.6-m f/3.0 reflector + CCD.
557 Ondrejov.  Observers P. Pravec, P. Kusnirak.  0.65-m f/3.6 reflector + CCD.
699 Lowell Observatory-LONEOS.  Observer B. A. Skiff.  Measurer B. W. Koehn.
    0.59-m LONEOS Schmidt + CCD.
858 Tebbutt Observatory, Edgewood.  Observer F. B. Zoltowski.  0.3-m f/3.3
    Schmidt-Cassegrain + CCD.

Orbital elements:
2000 SR43
Epoch 2000 Sept. 13.0 TT = JDT 2451800.5                Spahr
M 339.16461              (2000.0)            P               Q
n   0.26936569     Peri.   78.96670     +0.40138000     -0.91011546
a   2.3745129      Node   345.95582     +0.58308729     +0.34053067
e   0.5212788      Incl.   25.08379     +0.70633088     +0.23606930
P   3.66           H   19.6           G   0.15
From 29 observations 2000 Sept. 26-27.

Ephemeris:
2000 SR43                a,e,i = 2.37, 0.52, 25                  q = 1.1367
Date    TT    R. A. (2000) Decl.     Delta      r     Elong.  Phase     V
2000 09 23    00 00.68   +31 29.2    0.406    1.367   148.6    22.5    19.4
2000 10 03    23 24.03   +41 57.8    0.380    1.310   138.7    30.3    19.4
2000 10 13    22 36.02   +50 43.8    0.380    1.259   126.1    39.8    19.6
2000 10 23    21 43.48   +56 41.7    0.396    1.215   114.8    48.0    19.8
2000 11 02    20 55.95   +60 18.8    0.421    1.180   106.0    53.9    20.1
2000 11 12    20 18.70   +62 45.5    0.447    1.154   100.0    57.6    20.2
2000 11 22    19 51.50   +64 56.8    0.468    1.140    96.5    59.4    20.4
2000 12 02    19 32.33   +67 27.6    0.483    1.137    95.3    59.7    20.4
2000 12 12    19 18.6    +70 41.7    0.491    1.146    96.2    58.6    20.5
2000 12 22    19 08.0    +74 57.1    0.493    1.167    99.0    56.4    20.4
2001 01 01    18 55.8    +80 32.9    0.491    1.198   103.6    53.0    20.4
2001 01 11    17 43      +87 35.6    0.490    1.238   109.7    48.4    20.3
2001 01 21    07 55.6    +83 20.1    0.497    1.285   116.6    43.2    20.3
2001 01 31    07 39.9    +73 23.2    0.517    1.339   123.1    38.1    20.3
2001 02 10    07 41.54   +63 02.6    0.558    1.398   127.5    34.1    20.5
2001 02 20    07 47.70   +53 15.8    0.622    1.461   128.7    31.9    20.7
2001 03 02    07 56.32   +44 40.5    0.710    1.525   126.7    31.4    21.1
2001 03 12    08 06.57   +37 28.7    0.818    1.592   122.7    31.7    21.5

Timothy B. Spahr             (C) Copyright 2000 MPC           M.P.E.C. 2000-S61

Read MPEC 2000-S62 Read MPEC 2000-S62


MPEC number:

Enter an MPEC number in one of the following forms:

  • 1997-B01 (the full form)
  • J97B01 (the packed version of the full form)
  • B01 (the abbreviated form)

Valid HTML 4.01!